Location: *
(20.9330°N, 49.2180°E)
Time: 13:35:57
(UTC+00:00)

Daily predictions for brighter satellites

Satellite Brightness Start Highest point End
(mag) Time Altitude Azimuth Time Altitude Azimuth Time Altitude Azimuth
COSMOS 2428 3.5 14:17:37 10° SSE 14:22:36 31° ESE 14:27:35 10° NE
Lacrosse 5 rocket 3.1 14:20:30 10° WSW 14:24:41 35° NW 14:28:56 10° NNE
METEOR-M 4.4 14:20:00 10° S 14:25:19 77° WSW 14:30:39 10° NNW
Meteor 2-4 Rocket 4.3 14:20:24 10° SSE 14:25:44 39° E 14:30:56 10° NNE
Delta 2 Rocket 4.3 14:22:57 10° W 14:29:26 54° N 14:35:19 10° ENE
Cosmos 2322 Rocket 4.5 14:26:28 10° WSW 14:30:53 23° WNW 14:35:18 10° NNW
Cosmos 1975 Rocket 4.0 14:30:01 10° SSE 14:33:49 28° E 14:37:35 10° NNE
YAOGAN 1 3.7 14:30:42 10° SE 14:34:05 23° ENE 14:37:28 10° NNE
Cosmos 2263 Rocket 2.2 14:28:48 10° N 14:34:23 58° ENE 14:39:54 10° SSE
GOES 2 Rocket 3.8 14:30:20 10° WNW 14:35:36 44° N 14:39:54 10° E
COSMO-SKYMED 1 2.5 14:32:14 10° NNE 14:36:34 79° E 14:40:54 10° S
Cosmos 724 4.4 14:30:56 10° SSW 14:36:48 85° WNW 14:42:50 10° NNE
Cosmos 1727 Rocket 4.0 14:31:43 10° N 14:37:55 73° E 14:44:03 10° S
SeaSat 1 2.5 14:33:06 10° SSE 14:38:01 85° WSW 14:42:57 10° NNW
H-2A R/B 3.7 14:11:40 10° WNW 14:40:11 64° SSW 14:44:29 10° SE
Intelsat 5-1 Rocket 3.2 14:29:13 10° W 14:42:21 84° N 14:46:46 10° E
GPS 2-17 Rocket1 4.3 14:38:43 10° SW 14:43:02 33° SSE 14:47:24 10° E
Cosmos 2333 4.2 14:37:42 10° S 14:43:20 68° ESE 14:48:56 10° NNE
Cosmos 1934 Rocket 4.4 14:39:37 10° SSE 14:45:28 42° E 14:51:15 10° NNE
Cosmos 2360 Rocket 3.4 14:40:21 10° SW 14:45:39 42° WNW 14:50:57 10° N
Cosmos 2333 Rocket 2.7 14:42:12 10° S 14:47:27 39° ESE 14:52:41 10° NE
CSL-04 Rocket 3.6 14:43:59 10° SSE 14:49:10 61° ENE 14:54:26 10° N
ALOS 3.5 14:47:06 10° S 14:51:33 46° W 14:56:01 10° NNW
Cosmos 1666 3.1 14:47:48 10° NNW 14:51:37 66° W 14:55:26 10° S
CZ-2C R/B 4.2 14:47:07 10° NNE 14:51:38 42° E 14:56:06 10° S
Envisat 4.3 14:48:30 10° ESE 14:51:46 17° ENE 14:55:01 10° NNE
Cosmos 1378 Rocket 4.4 14:47:43 10° SSW 14:52:00 53° W 14:56:16 10° N
FUSE 3.9 14:48:45 10° WSW 14:54:05 89° N 14:58:10 17° ENE
PSLV R/B 4.1 14:52:24 10° WNW 14:55:18 46° SW 14:58:14 10° SE
OAO 3 Rocket 3.6 14:54:19 10° WNW 14:59:09 65° SSW 15:03:52 10° SE
H-2A R/B 2.7 14:56:52 10° SSE 15:00:37 58° ENE 15:04:25 10° N
CSL-04 Debris 4.1 14:56:39 10° SSE 15:02:04 81° ENE 15:07:28 10° N
Okean 1 Rocket 2.9 14:58:10 10° N 15:02:31 73° E 15:06:51 10° S
Cosmos 1743 2.9 14:59:04 10° N 15:02:52 72° W 15:06:39 10° S
Meteor 1-12 Rocket 4.1 15:00:56 10° N 15:06:32 69° E 15:12:09 10° SSE
Cosmos 2237 Rocket 3.2 15:04:22 10° SSE 15:08:55 26° ESE 15:10:27 23° ENE
NOAA 12 4.0 15:06:15 10° SSE 15:11:33 86° ENE 15:16:50 10° N
Aurora 2 Rocket 2.9 15:21:18 10° W 15:27:38 71° NNW 15:29:14 41° ENE
Ariane Rocket 3.0 15:23:45 10° S 15:28:49 84° WSW 15:33:53 10° NNW
EPKM 2.8 15:31:27 10° WNW 15:33:40 39° N 15:33:40 39° N
SWIFT 2.2 15:31:09 10° W 15:35:26 82° S 15:36:06 62° E
Meteor 2-12 Rocket 4.5 15:29:42 10° SSE 15:35:37 55° E 15:38:30 30° NNE
Fermi 4.0 15:33:37 10° WNW 15:37:25 49° N 15:37:25 49° N
ATLAS 3B R/B 3.0 15:33:40 10° S 15:40:33 49° ESE 15:42:24 40° ENE
ISS -2.2 15:40:43 10° NW 15:42:26 28° NW 15:42:26 28° NW
DELTA 2 R/B (1) 3.4 15:38:47 10° NW 15:44:21 77° NE 15:45:47 50° ESE
NOSS 0 Rocket 3.8 15:38:57 10° SSW 15:45:05 87° ESE 15:47:58 34° NNE
BREEZE-M DEB (TANK) 3.5 15:43:22 10° NW 15:44:49 26° NW 15:44:49 26° NW
Cosmos 1980 3.6 15:40:59 10° S 15:46:37 72° ESE 15:48:02 51° NE
USA 238 DEB 3.7 15:40:47 10° SSW 15:47:30 80° WNW 15:51:04 31° NNE
USA 238 3.7 15:40:52 10° SSW 15:47:37 81° WNW 15:51:09 31° NNE
CZ-4 R/B 4.2 15:47:15 10° SW 15:50:21 20° W 15:53:27 10° NW
Cosmos 1153 Rocket 4.4 15:45:00 10° S 15:51:11 67° E 15:53:15 43° NNE
NOSS 3-2 (A) 3.1 15:49:15 10° SSW 15:54:49 74° ESE 15:55:28 66° ENE
Cosmos 1400 Rocket 3.4 15:53:49 10° SSW 15:57:06 55° SW 15:57:06 55° SW
Timation 1 Rocket 4.4 15:53:34 10° NNW 15:59:31 76° WSW 16:05:26 10° SSE
Cosmos 2219 Rocket 3.7 15:55:22 10° SW 16:00:22 32° WNW 16:04:48 13° N
Cosmos 1066 Rocket 4.1 15:55:09 10° S 16:00:59 86° E 16:01:59 63° NNE
CZ-3B Rocket 3.0 16:04:23 10° W 16:08:39 71° S 16:11:43 43° ESE
Cosmos 1844 Rocket 4.0 16:04:27 10° NNW 16:06:55 27° NNW 16:06:55 27° NNW
Cosmos 2123 Rocket 4.4 16:07:20 10° NNW 16:13:33 61° W 16:19:44 10° S
NOSS 3-2 (C) 3.9 16:22:10 10° SSW 16:26:06 48° SSW 16:26:06 48° SSW
Cosmos 2237 Rocket 4.0 16:48:09 10° WSW 16:52:21 26° WNW 16:52:21 26° WNW
